Regional Weather Roundup
Issued by NWS

Home | Current Version | Previous Version | Graphics & Text | Print | Product List | Glossary On
Versions: 1 2 3 4 5 6 7 8 9 10 11 12 13 14 15 16 17 18 19 20 21 22 23 24 25 26 27 28 29 30 31 32 33 34 35 36 37 38 39 40 41 42 43 44 45 46 47 48 49 50
361
ASUS45 KCYS 192110
RWRWY

WYOMING REGIONAL WEATHER ROUNDUP
NATIONAL WEATHER SERVICE CHEYENNE WY
300 PM MDT TUE SEP 19 2017

NOTE:  "FAIR" INDICATES FEW OR NO CLOUDS BELOW 12,000 FEET
WITH NO SIGNIFICANT WEATHER AND/OR OBSTRUCTIONS TO VISIBILITY.

WYZ001-192200-
YELLOWSTONE NATIONAL PARK

CITY           SKY/WX    TMP DP  RH WIND       PRES   REMARKS
LK YELLOWSTONE   N/A     29  28  96 W8G18     29.83R WCI  21
W YELLOWSTONE  NOT AVBL

$$
WYZ002>013-054>058-071-098>099-192200-
NORTHERN WYOMING

CITY           SKY/WX    TMP DP  RH WIND       PRES   REMARKS
JACKSON        FLURRIES  40  33  76 S16       29.84S WCI  31
CODY           FAIR      51  37  58 N9        29.72R
GREYBULL       FAIR      54  40  59 N14       29.70R
WORLAND        CLOUDY    51  42  71 N7        29.70S
SHERIDAN       PTSUNNY   50  38  63 NW12      29.70F
BUFFALO        LGT RAIN  41  36  82 N18G29    29.72R
GILLETTE       CLOUDY    48  46  93 NW16      29.68R
HULETT         HVY RAIN  46  45  93 W6        29.69R
NEWCASTLE      FAIR      55  39  54 W14G21    29.69S

$$
WYZ014>020-022>026-101>103-192200-
CENTRAL WYOMING

CITY           SKY/WX    TMP DP  RH WIND       PRES   REMARKS
BIG PINEY      FAIR      48  25  40 NW22G31   29.87F
PINEDALE       MOCLDY    43  27  52 W13G23    29.88R
DUBOIS         FAIR      41  28  60 W20G38    29.79R
LANDER           N/A    N/A N/A N/A MISG      29.77R
RIVERTON       FAIR      56  22  26 W28G36    29.74S
CASPER         CLOUDY    48  45  89 SW28G35   29.76F
DOUGLAS        LGT RAIN  51  39  63 W23G33    29.79R

$$
WYZ021-027>030-104>119-192200-
SOUTHERN WYOMING

CITY           SKY/WX    TMP DP  RH WIND       PRES   REMARKS
EVANSTON       CLOUDY    38  34  85 SW15      29.97F WCI  29
FORT BRIDGER   CLOUDY    39  38  94 W20       30.00S WCI  30
ROCK SPRINGS   PTSUNNY   41  34  76 W28G37    29.93F
DIXON          RAIN      38  35  86 NW8       30.01R WCI  33
RAWLINS        SNOW      33  31  92 SW13G24   29.95R VSB 1/2 WCI  24
SARATOGA       RAIN      37  36  93 NW13      29.98R WCI  29
LARAMIE        FAIR      53  32  44 NW35G44   29.80R
CHEYENNE       FAIR      66  35  31 NW28G37   29.73R
TORRINGTON     FAIR      69  39  33 NW25G33   29.63R
PINE BLUFFS    FAIR      82  19   9 W13G21    29.63S

$$




USA.gov is the U.S. government's official web portal to all federal, state and local government web resources and services.